Aérodrome :
LOGIN :

S'inscrire | Disclaimer

   EN    FR    IT 

 










Légende :    VFR   VFR Marginal   IFR   IFR Intensif   IFR Très Intensif
Visi : 
Plafond : 
>= 8 km
>= 3000ft
5 à 8 km
1000 à 3000 ft
1500m à 5 km
500 à 1000 ft
800 à 1500m
200 à 500 ft
< 800m
< 200 ft
Symboles :   Orages  Brouillard  Fortes neiges  Fortes précipitations  Vent > 20 kt
SIGMETs :   Divers  Orages  Givrage  Turbulence  Onde Orograph.  Cendres Volcan.






- Altitude de l'aérodrome : 386 ft
- Code IATA : QOE


ETNN - Nörvenich Airforce Base

DERNIER METAR :
  • 270920Z 01002KT 5000 BR FEW002 BKN009 BKN012 04/02 Q1040 GRN

METARs EXPIRÉS :
  • 270820Z 27003KT 4500 BR SCT002 OVC009 04/02 Q1040 GRN
  • 270741Z 27002KT 4000 BR SCT002 OVC009 03/02 Q1040 GRN
  • 270720Z VRB02KT 3000 BR SCT002 OVC005 03/02 Q1039 YLO

TAF TAF ETNN
Valide du 27 à 09h jusqu'au 27 à 18h UTC


270812Z 2709/2718 29005KT 5000 BR BKN005
BECMG 2709/2711 02005KT 9999 NSW BKN012 BY ETGL



MET'MAP, la Météo Aéronautique d'un coup d'oeil ! - Copyright ORBIFLY Décembre 2007 - Disclaimer

ORBIFLY MET'MAP TEAM :

Programmation & Développement : Alexandra Zaïnal
Sur une idée originale de : Baudouin d'Aumeries
Assistance à la programmation : Marc-Olivier Méhu
Soutien technique & logistique : Manuel Goepfert

Contact : metmap@orbifly.com




SOURCES & CREDITS :

   NOAA